When you browse on this site, cookies collect data to enhance your experience and personalize the content and advertising you see.
Visit our Privacy Policy to learn more. By continuing to use the site, you agree to this use of cookies and data.
  • In United Kingdom
  • List of Countries
  • For 7 days
  • Water Temperature
  • Satellite Maps
  • Weather Map
  • Weather Widgets
  • user-avatar
    Login

    Hourly Weather Pecs

    Today, 25 April, Thursday

    Time Temperature Precipitation Wind Pressure Humidity
    00:00 +14°C° 0 mm 2 mps 744 mmHg 90%
    01:00 +14°C° 0 mm 1 mps 744 mmHg 91%
    02:00 +14°C° 0 mm 1 mps 744 mmHg 91%
    03:00 +14°C° 0 mm 1 mps 744 mmHg 90%
    04:00 +13°C° 0 mm 1 mps 744 mmHg 90%
    05:00 +14°C° 0 mm 2 mps 744 mmHg 86%
    06:00 +15°C° 0 mm 2 mps 744 mmHg 82%
    07:00 +17°C° 0 mm 2 mps 744 mmHg 76%
    08:00 +18°C° 0 mm 3 mps 745 mmHg 69%
    09:00 +20°C° 0 mm 3 mps 745 mmHg 62%
    10:00 +22°C° 0 mm 3 mps 745 mmHg 55%
    11:00 +23°C° 0 mm 4 mps 745 mmHg 52%
    12:00 +25°C° 0 mm 4 mps 744 mmHg 49%
    13:00 +26°C° 0 mm 4 mps 744 mmHg 46%
    14:00 +26°C° 0 mm 4 mps 744 mmHg 46%
    15:00 +26°C° 0 mm 4 mps 744 mmHg 47%
    16:00 +26°C° 0 mm 4 mps 743 mmHg 47%
    17:00 +24°C° 0 mm 3 mps 743 mmHg 53%
    18:00 +21°C° 0 mm 2 mps 743 mmHg 58%
    19:00 +20°C° 0 mm 2 mps 743 mmHg 64%
    20:00 +19°C° 0 mm 2 mps 743 mmHg 66%
    21:00 +18°C° 0 mm 2 mps 743 mmHg 68%
    22:00 +17°C° 0 mm 2 mps 743 mmHg 70%
    23:00 +18°C° 0 mm 1 mps 743 mmHg 71%

    Tomorrow, 26 April, Friday

    Time Temperature Precipitation Wind Pressure Humidity
    00:00 +16°C° 0 mm 1 mps 743 mmHg 72%
    01:00 +16°C° 0 mm 1 mps 743 mmHg 73%
    02:00 +15°C° 0 mm 1 mps 743 mmHg 75%
    03:00 +15°C° 0 mm 1 mps 743 mmHg 76%
    04:00 +15°C° 0 mm 1 mps 742 mmHg 78%
    05:00 +16°C° 0 mm 1 mps 742 mmHg 74%
    06:00 +18°C° 0 mm 1 mps 742 mmHg 71%
    07:00 +18°C° 0 mm 2 mps 742 mmHg 68%
    08:00 +20°C° 0 mm 2 mps 742 mmHg 60%
    09:00 +22°C° 0 mm 3 mps 742 mmHg 53%
    10:00 +25°C° 0 mm 3 mps 742 mmHg 46%
    11:00 +26°C° 0 mm 3 mps 742 mmHg 44%
    12:00 +27°C° 0 mm 4 mps 741 mmHg 42%
    13:00 +28°C° 0 mm 4 mps 741 mmHg 40%
    14:00 +28°C° 0 mm 3 mps 741 mmHg 42%
    15:00 +28°C° 0 mm 3 mps 740 mmHg 43%
    16:00 +28°C° 0 mm 2 mps 740 mmHg 45%
    17:00 +24°C° 1 mm 3 mps 740 mmHg 57%
    18:00 +20°C° 1 mm 4 mps 740 mmHg 69%
    19:00 +16°C° 1 mm 5 mps 740 mmHg 81%
    20:00 +15°C° 0.7 mm 4 mps 740 mmHg 82%
    21:00 +15°C° 0.7 mm 4 mps 740 mmHg 84%
    22:00 +14°C° 0.7 mm 3 mps 741 mmHg 85%
    23:00 +14°C° 0.3 mm 3 mps 741 mmHg 86%

    Day after tomorrow, 27 April, Saturday

    Time Temperature Precipitation Wind Pressure Humidity
    00:00 +15°C° 0.3 mm 2 mps 741 mmHg 87%
    01:00 +15°C° 0.3 mm 2 mps 741 mmHg 88%
    02:00 +14°C° 0.5 mm 2 mps 741 mmHg 89%
    03:00 +14°C° 0.5 mm 2 mps 741 mmHg 89%
    04:00 +12°C° 0.5 mm 3 mps 741 mmHg 90%
    05:00 +11°C° 0.7 mm 3 mps 741 mmHg 88%
    06:00 +11°C° 0.7 mm 3 mps 742 mmHg 86%
    07:00 +10°C° 0.7 mm 3 mps 742 mmHg 84%
    08:00 +11°C° 0.3 mm 3 mps 742 mmHg 80%
    09:00 +12°C° 0.3 mm 3 mps 743 mmHg 76%
    10:00 +13°C° 0.3 mm 3 mps 743 mmHg 72%
    11:00 +14°C° 0 mm 3 mps 743 mmHg 68%
    12:00 +15°C° 0 mm 4 mps 743 mmHg 64%
    13:00 +17°C° 0 mm 4 mps 743 mmHg 60%
    14:00 +17°C° 0 mm 4 mps 742 mmHg 60%
    15:00 +17°C° 0 mm 4 mps 742 mmHg 60%
    16:00 +17°C° 0 mm 3 mps 742 mmHg 60%
    17:00 +14°C° 0 mm 3 mps 742 mmHg 64%
    18:00 +14°C° 0 mm 2 mps 742 mmHg 68%
    19:00 +13°C° 0 mm 1 mps 742 mmHg 72%
    20:00 +12°C° 0 mm 1 mps 742 mmHg 73%
    21:00 +12°C° 0 mm 2 mps 742 mmHg 73%
    22:00 +10°C° 0 mm 2 mps 742 mmHg 74%
    23:00 +10°C° 0 mm 2 mps 742 mmHg 75%

    28 April, Sunday

    Time Temperature Precipitation Wind Pressure Humidity
    00:00 +10°C° 0 mm 2 mps 742 mmHg 77%
    01:00 +9°C° 0 mm 2 mps 742 mmHg 78%
    02:00 +9°C° 0 mm 3 mps 742 mmHg 80%
    03:00 +9°C° 0 mm 3 mps 742 mmHg 82%
    04:00 +9°C° 0 mm 3 mps 742 mmHg 84%
    05:00 +8°C° 0 mm 4 mps 742 mmHg 79%
    06:00 +9°C° 0 mm 5 mps 742 mmHg 75%
    07:00 +10°C° 0 mm 5 mps 742 mmHg 71%
    08:00 +12°C° 0 mm 5 mps 742 mmHg 67%
    09:00 +14°C° 0 mm 5 mps 742 mmHg 62%
    10:00 +15°C° 0 mm 5 mps 742 mmHg 58%
    11:00 +16°C° 0 mm 5 mps 742 mmHg 55%
    12:00 +18°C° 0 mm 4 mps 742 mmHg 52%
    13:00 +18°C° 0 mm 4 mps 741 mmHg 49%
    14:00 +18°C° 0 mm 3 mps 741 mmHg 50%
    15:00 +18°C° 0 mm 3 mps 741 mmHg 50%
    16:00 +18°C° 0 mm 3 mps 740 mmHg 50%
    17:00 +17°C° 0 mm 3 mps 740 mmHg 58%
    18:00 +15°C° 0 mm 2 mps 740 mmHg 66%
    19:00 +13°C° 0 mm 2 mps 740 mmHg 73%
    20:00 +13°C° 0 mm 2 mps 741 mmHg 75%
    21:00 +12°C° 0 mm 2 mps 741 mmHg 77%
    22:00 +12°C° 0 mm 2 mps 741 mmHg 80%
    23:00 +12°C° 0 mm 2 mps 741 mmHg 80%

    29 April, Monday

    Time Temperature Precipitation Wind Pressure Humidity
    00:00 +10°C° 0 mm 2 mps 741 mmHg 81%
    01:00 +10°C° 0 mm 2 mps 741 mmHg 82%
    02:00 +9°C° 0 mm 2 mps 741 mmHg 83%
    03:00 +9°C° 0 mm 2 mps 740 mmHg 85%
    04:00 +8°C° 0 mm 2 mps 740 mmHg 87%
    05:00 +9°C° 0 mm 2 mps 740 mmHg 84%
    06:00 +9°C° 0 mm 2 mps 740 mmHg 82%
    07:00 +10°C° 0 mm 3 mps 740 mmHg 79%
    08:00 +12°C° 0 mm 3 mps 740 mmHg 74%
    09:00 +13°C° 0 mm 3 mps 740 mmHg 70%
    10:00 +16°C° 0 mm 3 mps 740 mmHg 65%
    11:00 +17°C° 0.4 mm 3 mps 740 mmHg 63%
    12:00 +17°C° 0.4 mm 3 mps 739 mmHg 61%
    13:00 +18°C° 0.4 mm 4 mps 739 mmHg 60%
    14:00 +18°C° 0.7 mm 4 mps 738 mmHg 62%
    15:00 +16°C° 0.7 mm 5 mps 738 mmHg 64%
    16:00 +16°C° 0.7 mm 5 mps 738 mmHg 66%
    17:00 +15°C° 0.3 mm 5 mps 738 mmHg 70%
    18:00 +14°C° 0.3 mm 4 mps 738 mmHg 74%
    19:00 +12°C° 0.3 mm 4 mps 738 mmHg 78%
    20:00 +11°C° 0 mm 4 mps 738 mmHg 80%
    21:00 +11°C° 0 mm 4 mps 738 mmHg 82%
    22:00 +10°C° 0 mm 4 mps 739 mmHg 84%
    23:00 +8°C° 0 mm 4 mps 739 mmHg 86%

    30 April, Tuesday

    Time Temperature Precipitation Wind Pressure Humidity
    00:00 +8°C° 0 mm 4 mps 738 mmHg 88%
    01:00 +7°C° 0 mm 4 mps 738 mmHg 90%
    02:00 +8°C° 0 mm 3 mps 738 mmHg 91%
    03:00 +8°C° 0 mm 3 mps 738 mmHg 92%
    04:00 +8°C° 0 mm 3 mps 738 mmHg 94%
    05:00 +7°C° 0 mm 4 mps 738 mmHg 92%
    06:00 +8°C° 0 mm 4 mps 738 mmHg 90%
    07:00 +10°C° 0 mm 4 mps 739 mmHg 87%
    08:00 +10°C° 0.1 mm 4 mps 739 mmHg 88%
    09:00 +9°C° 0.1 mm 5 mps 739 mmHg 88%
    10:00 +9°C° 0.1 mm 5 mps 739 mmHg 88%
    11:00 +11°C° 0 mm 4 mps 739 mmHg 84%
    12:00 +12°C° 0 mm 4 mps 739 mmHg 80%
    13:00 +13°C° 0 mm 4 mps 739 mmHg 76%
    14:00 +13°C° 0.2 mm 4 mps 739 mmHg 79%
    15:00 +13°C° 0.2 mm 3 mps 739 mmHg 82%
    16:00 +12°C° 0.2 mm 3 mps 739 mmHg 85%
    17:00 +11°C° 0.1 mm 3 mps 740 mmHg 87%
    18:00 +12°C° 0.1 mm 2 mps 740 mmHg 89%
    19:00 +10°C° 0.1 mm 2 mps 740 mmHg 91%
    20:00 +10°C° 0 mm 2 mps 740 mmHg 92%
    21:00 +9°C° 0 mm 2 mps 740 mmHg 93%
    22:00 +9°C° 0 mm 1 mps 741 mmHg 94%
    23:00 +9°C° 0 mm 1 mps 741 mmHg 94%
    Show more